カタログに戻る

STARLINK-32271

運用中通信VLEO
NORAD 60368·PAYLOAD·🇺🇸 United States

打ち上げ Aug 4, 2024 から Vandenberg Space Force Base

Loading…

次のパス (今後24時間)

TLE

最新Source: CelesTrak SupGP

元期: Sep 14, 2026, 14:19 UTC

1 60368C 24138P   26257.59701389  .00065648  00000+0  19402-2 0  2578
2 60368  53.1573 151.3839 0001364 111.6213 152.6322 15.34346964    15

AllMySatでSTARLINK-32271をリアルタイム追跡

Download on the App Store